Location: Rancho Del Sol Observatory
(38.7214°N, 120.6350°W)
Time: 19:51:08
(UTC-08:00)

A-11 Canister half - Pass Details

Date: 04 February 2020
Orbit: 1517 x 1683 km, 47.2° (Epoch: 17 February)

Event Time Altitude Azimuth Distance (km) Brightness Sun altitude
Rises 00:57:30 0° 292° (WNW) 4,728 - -65.9°
Reaches altitude 10° 01:00:42 10° 296° (WNW) 3,725 - -65.6°
Maximum altitude 01:09:53 57° 14° (NNE) 1,747 - -64.7°
Drops below altitude 10° 01:18:58 10° 93° (E) 3,675 - -63.8°
Sets 01:22:05 0° 97° (E) 4,661 - -63.4°
Exits shadow 01:22:06 - 97° (E) 4,663 11.7 -63.4°
